RAF Valley/Anglesey Airport

Airport
ICAO code: 
EGOV
IATA Code: 
VLY
Summary
ICAO Region: 
EUR
Territory: 
Location: 
Valley, Anglesey, Wales
Serving: 
Holyhead
Elevation: 
37 ft
Coordinates: 
Aerial View: 
53° 14' 54.811" N, 4° 32' 11.795" W
Metar
Observation
EGOV 210450Z AUTO 30005KT 9999 OVC029/// 07/03 Q1040
Station
Valley
Date/Time
2022-01-21 04:50:00
Wind direction
300°
Wind speed
05 kts
Lowest cloud amount
overcast
Temperature
7°C
Dew point
3°C
Humidity
75%
QNH
1040 hPa
Weather condition
n/a

RAF Valley is a Royal Air Force station on the island of Anglesey in North Wales, which is also known as Anglesey Airport for permitted civil traffic. It is the military base for a number of aviation activities but is particularly focussed on fast-jet training using the BAE Hawk. Anglesey Airport provides limited scheduled passenger flights with financial support from the Welsh Government.

Climatology

Temperate Marine climate/Oceanic climate (Köppen climate classification Cfb).

Runways

Designator Length Width Surface Rops
8/26 1280 46 ASP No/No
1/19 1639 46 ASP No/No
14/32 2290 46 ASP No/No
Airport map: 
Aerial View: 

SKYbrary Partners:

Safety knowledge contributed by: